Find Gonets-D1 No. 16L

NORAD ID: 24728 Int'l Des: 1997-006 Owner: GONETS Country: RU operational
LEOCIRCULARPOLAR

現在のビュー

3D地球を読み込み中...

About Gonets-D1 No. 16L

Gonets-D1 No. 16L (NORAD 24728) is a satellite launched Feb 14, 1997 by GONETS of RU. It operates in LEO, CIRCULAR, POLAR orbit with a mass of 225.00 kg.

次回通過

Passes for default location (London). Set your location on the main map for personalized predictions.

高度履歴

Loading altitude history...

軌道要素

1 24728U 97006D 26195.14340409 .00000007 00000-0 -20457-4 0 9993
2 24728 82.6017 219.0932 0009042 115.5507 244.6520 12.63922802356613
Epoch: Jul 14, 2026 • Age: 13 hours

現在のステータス

高度 1440.1 km
遠地点 / 近地点 N/A
速度 7.14 km/s
衛星直下点 -76.49°S, 104.31°W
打ち上げ日 Feb 14, 1997
運用期間 29.4 years
タイプ other

技術仕様

分類 Payload
質量 225.00 kg
乾燥質量 225.00 kg
総質量 225.00 kg
長さ 1.60 m
直径 0.80 m
スパン 7.00 m
形状 Cyl + Ant
製造者 NPOPMR
バスタイプ Strela-3
フェーズステータス In Orbit
所有者/国 GONETS/RU

Most Searched